VOYAGER:1:PRINTED,ON:,1-OCT-01:14:37:17:V179056S32
START_TIME,STOP_TIME,SECTOR,SCAN_DIR,E44FLUX,E44UNC,E45FLUX,E45UNC,E37FLUX,E37UNC,P31FLUX,P31UNC
1979-02-25 00:00:11.880 ,1979-02-25 00:00:17.820 ,3,1,9.56,1.77,0.497,0.352,-1.00,-1.00,2.683E-02,4.670E-03
1979-02-25 00:00:18.260 ,1979-02-25 00:00:41.820 ,4,1,6.37,0.683,0.186,0.108,-1.00,-1.00,2.316E-02,2.131E-03
1979-02-25 00:00:42.260 ,1979-02-25 00:01:05.820 ,5,1,11.5,0.893,0.186,0.108,-1.00,-1.00,2.500E-02,2.254E-03
1979-02-25 00:01:06.260 ,1979-02-25 00:01:29.820 ,6,1,12.8,0.940,0.497,0.176,-1.00,-1.00,1.931E-02,1.979E-03
1979-02-25 00:01:30.260 ,1979-02-25 00:01:53.820 ,7,1,13.0,0.949,0.435,0.164,-1.00,-1.00,2.361E-02,2.228E-03
1979-02-25 00:01:54.260 ,1979-02-25 00:02:35.820 ,8,1,11.3,0.672,0.675,0.155,-1.00,-1.00,2.590E-02,1.732E-03
1979-02-25 00:02:35.880 ,1979-02-25 00:02:41.820 ,8,-1,11.3,1.73,0.000E+00,0.000E+00,-1.00,-1.00,2.134E-02,3.895E-03
1979-02-25 00:02:42.260 ,1979-02-25 00:03:05.820 ,7,-1,11.5,0.893,0.186,0.108,-1.00,-1.00,2.532E-02,2.227E-03
1979-02-25 00:03:06.260 ,1979-02-25 00:03:29.820 ,6,-1,11.8,0.929,0.373,0.152,-1.00,-1.00,1.972E-02,1.999E-03
1979-02-25 00:03:30.260 ,1979-02-25 00:03:53.820 ,5,-1,9.08,0.815,0.186,0.108,-1.00,-1.00,2.198E-02,2.074E-03
1979-02-25 00:03:54.260 ,1979-02-25 00:04:17.820 ,4,-1,8.61,0.772,0.311,0.139,-1.00,-1.00,2.419E-02,2.215E-03
1979-02-25 00:04:18.260 ,1979-02-25 00:04:41.820 ,3,-1,10.1,0.838,0.373,0.152,-1.00,-1.00,2.036E-02,2.109E-03
1979-02-25 00:04:42.260 ,1979-02-25 00:05:05.820 ,2,-1,10.7,0.884,0.435,0.164,-1.00,-1.00,2.561E-02,2.281E-03
1979-02-25 00:05:05.880 ,1979-02-25 00:05:30.260 ,1,-1,10.4,1.40,0.249,0.144,-1.00,-1.00,1.935E-02,3.317E-03
1979-02-25 00:05:30.260 ,1979-02-25 00:05:53.820 ,1,1,10.6,0.858,0.311,0.139,-1.00,-1.00,2.642E-02,2.316E-03
1979-02-25 00:05:54.260 ,1979-02-25 00:06:17.820 ,2,1,13.4,0.963,0.622,0.196,-1.00,-1.00,2.572E-02,2.326E-03
1979-02-25 00:06:18.260 ,1979-02-25 00:06:41.820 ,3,1,10.3,0.847,0.373,0.152,-1.00,-1.00,2.171E-02,2.137E-03
1979-02-25 00:06:42.260 ,1979-02-25 00:07:05.820 ,4,1,7.77,0.734,0.311,0.139,-1.00,-1.00,2.129E-02,2.116E-03
1979-02-25 00:07:06.260 ,1979-02-25 00:07:29.820 ,5,1,11.3,0.886,0.497,0.176,-1.00,-1.00,2.256E-02,2.140E-03
1979-02-25 00:07:30.260 ,1979-02-25 00:07:53.820 ,6,1,11.9,0.908,0.373,0.152,-1.00,-1.00,2.276E-02,2.113E-03
1979-02-25 00:07:54.260 ,1979-02-25 00:08:17.820 ,7,1,13.2,0.956,0.249,0.124,-1.00,-1.00,2.033E-02,2.033E-03
1979-02-25 00:08:18.260 ,1979-02-25 00:08:59.820 ,8,1,11.8,0.697,0.178,7.942E-02,-1.00,-1.00,2.242E-02,1.611E-03
1979-02-25 00:08:59.880 ,1979-02-25 00:09:05.820 ,8,-1,13.7,1.90,0.249,0.249,-1.00,-1.00,2.205E-02,3.959E-03
1979-02-25 00:09:06.260 ,1979-02-25 00:09:29.820 ,7,-1,12.1,0.917,0.249,0.124,-1.00,-1.00,2.708E-02,2.302E-03
1979-02-25 00:09:30.260 ,1979-02-25 00:09:53.820 ,6,-1,10.8,0.913,0.373,0.152,-1.00,-1.00,2.093E-02,2.061E-03
1979-02-25 00:09:54.260 ,1979-02-25 00:10:17.820 ,5,-1,10.7,0.860,0.373,0.152,-1.00,-1.00,2.433E-02,2.182E-03
1979-02-25 00:10:18.260 ,1979-02-25 00:10:41.820 ,4,-1,8.26,0.756,0.435,0.164,-1.00,-1.00,2.159E-02,2.057E-03
1979-02-25 00:10:42.260 ,1979-02-25 00:11:05.820 ,3,-1,10.1,0.835,0.684,0.206,-1.00,-1.00,2.581E-02,2.287E-03
1979-02-25 00:11:06.260 ,1979-02-25 00:11:29.820 ,2,-1,11.8,0.903,0.311,0.139,-1.00,-1.00,2.689E-02,2.294E-03
1979-02-25 00:11:29.880 ,1979-02-25 00:11:54.260 ,1,-1,9.67,1.46,0.746,0.249,-1.00,-1.00,1.593E-02,3.010E-03
1979-02-25 00:11:54.260 ,1979-02-25 00:12:17.820 ,1,1,10.3,0.844,0.435,0.164,-1.00,-1.00,2.825E-02,2.393E-03
1979-02-25 00:12:18.260 ,1979-02-25 00:12:41.820 ,2,1,10.8,0.866,0.186,0.108,-1.00,-1.00,2.689E-02,2.294E-03
1979-02-25 00:12:42.260 ,1979-02-25 00:13:05.820 ,3,1,11.4,0.887,0.435,0.164,-1.00,-1.00,2.134E-02,2.081E-03
1979-02-25 00:13:06.260 ,1979-02-25 00:13:29.820 ,4,1,7.84,0.757,0.435,0.164,-1.00,-1.00,2.335E-02,2.138E-03
1979-02-25 00:13:30.260 ,1979-02-25 00:13:53.820 ,5,1,10.5,0.851,0.373,0.152,-1.00,-1.00,2.276E-02,2.148E-03
1979-02-25 00:13:54.260 ,1979-02-25 00:14:17.820 ,6,1,9.82,0.847,0.373,0.152,-1.00,-1.00,2.185E-02,2.230E-03
1979-02-25 00:14:18.260 ,1979-02-25 00:14:41.820 ,7,1,12.9,0.946,0.249,0.124,-1.00,-1.00,2.337E-02,2.177E-03
1979-02-25 00:14:42.260 ,1979-02-25 00:15:23.820 ,8,1,12.5,0.726,0.391,0.118,-1.00,-1.00,2.202E-02,1.648E-03
1979-02-25 00:15:23.880 ,1979-02-25 00:15:29.820 ,8,-1,13.2,1.86,0.497,0.352,-1.00,-1.00,2.063E-02,3.829E-03
1979-02-25 00:15:30.260 ,1979-02-25 00:15:53.820 ,7,-1,12.1,0.915,0.497,0.176,-1.00,-1.00,2.256E-02,2.140E-03
1979-02-25 00:15:54.260 ,1979-02-25 00:16:17.820 ,6,-1,11.6,0.896,0.311,0.139,-1.00,-1.00,2.002E-02,1.980E-03
1979-02-25 00:16:18.260 ,1979-02-25 00:16:41.820 ,5,-1,10.5,0.855,0.249,0.124,-1.00,-1.00,2.337E-02,2.177E-03
1979-02-25 00:16:42.260 ,1979-02-25 00:17:05.820 ,4,-1,7.77,0.753,0.684,0.206,-1.00,-1.00,2.093E-02,2.061E-03
1979-02-25 00:17:06.260 ,1979-02-25 00:17:29.820 ,3,-1,11.1,0.899,0.311,0.139,-1.00,-1.00,2.297E-02,2.160E-03
1979-02-25 00:17:30.260 ,1979-02-25 00:17:53.820 ,2,-1,12.1,0.917,0.373,0.152,-1.00,-1.00,2.215E-02,2.122E-03
1979-02-25 00:17:53.880 ,1979-02-25 00:18:18.260 ,1,-1,12.1,1.51,0.332,0.166,-1.00,-1.00,1.960E-02,3.519E-03
1979-02-25 00:18:18.260 ,1979-02-25 00:18:41.820 ,1,1,10.5,0.855,0.435,0.164,-1.00,-1.00,2.708E-02,2.302E-03
1979-02-25 00:18:42.260 ,1979-02-25 00:19:05.820 ,2,1,9.79,0.823,0.622,0.196,-1.00,-1.00,2.358E-02,2.188E-03
1979-02-25 00:19:06.260 ,1979-02-25 00:19:29.820 ,3,1,9.99,0.832,0.746,0.215,-1.00,-1.00,2.276E-02,2.113E-03
1979-02-25 00:19:30.260 ,1979-02-25 00:19:53.820 ,4,1,8.95,0.788,0.186,0.108,-1.00,-1.00,2.439E-02,2.226E-03
1979-02-25 00:19:54.260 ,1979-02-25 00:20:17.820 ,5,1,12.8,0.940,0.249,0.124,-1.00,-1.00,2.445E-02,2.269E-03
1979-02-25 00:20:18.260 ,1979-02-25 00:20:41.820 ,6,1,11.4,0.887,0.497,0.176,-1.00,-1.00,2.473E-02,2.327E-03
1979-02-25 00:20:42.260 ,1979-02-25 00:21:05.820 ,7,1,12.9,0.971,0.497,0.176,-1.00,-1.00,2.316E-02,2.131E-03
1979-02-25 00:21:06.260 ,1979-02-25 00:21:47.820 ,8,1,10.7,0.653,0.391,0.118,-1.00,-1.00,2.265E-02,1.638E-03
1979-02-25 00:21:47.880 ,1979-02-25 00:21:53.820 ,8,-1,10.0,1.63,0.746,0.431,-1.00,-1.00,2.561E-02,4.266E-03
1979-02-25 00:21:54.260 ,1979-02-25 00:22:17.820 ,7,-1,10.5,0.851,0.249,0.124,-1.00,-1.00,2.237E-02,2.094E-03
1979-02-25 00:22:18.260 ,1979-02-25 00:22:41.820 ,6,-1,11.3,0.886,0.559,0.186,-1.00,-1.00,2.669E-02,2.285E-03
1979-02-25 00:22:42.260 ,1979-02-25 00:23:05.820 ,5,-1,9.79,0.823,0.435,0.164,-1.00,-1.00,2.378E-02,2.196E-03
1979-02-25 00:23:06.260 ,1979-02-25 00:23:29.820 ,4,-1,9.23,0.799,0.497,0.176,-1.00,-1.00,2.320E-02,2.251E-03
1979-02-25 00:23:30.260 ,1979-02-25 00:23:53.820 ,3,-1,10.8,0.866,0.435,0.164,-1.00,-1.00,2.159E-02,2.057E-03
1979-02-25 00:23:54.260 ,1979-02-25 00:24:17.820 ,2,-1,11.0,0.924,0.435,0.164,-1.00,-1.00,2.532E-02,2.227E-03
1979-02-25 00:24:17.880 ,1979-02-25 00:24:42.260 ,1,-1,14.7,1.66,0.166,0.117,-1.00,-1.00,3.162E-02,4.471E-03
1979-02-25 00:24:42.260 ,1979-02-25 00:25:05.820 ,1,1,11.7,0.925,0.622,0.196,-1.00,-1.00,2.581E-02,2.287E-03
1979-02-25 00:25:06.260 ,1979-02-25 00:25:29.820 ,2,1,12.3,0.923,0.435,0.164,-1.00,-1.00,2.382E-02,2.240E-03
1979-02-25 00:25:30.260 ,1979-02-25 00:25:53.820 ,3,1,11.1,0.903,0.311,0.139,-1.00,-1.00,2.319E-02,2.210E-03
1979-02-25 00:25:54.260 ,1979-02-25 00:26:17.820 ,4,1,8.76,0.824,0.186,0.108,-1.00,-1.00,2.003E-02,2.135E-03
1979-02-25 00:26:18.260 ,1979-02-25 00:26:41.820 ,5,1,9.92,0.830,0.373,0.152,-1.00,-1.00,2.093E-02,2.061E-03
1979-02-25 00:26:42.260 ,1979-02-25 00:27:05.820 ,6,1,11.5,0.893,0.249,0.124,-1.00,-1.00,2.198E-02,2.074E-03
1979-02-25 00:27:06.260 ,1979-02-25 00:27:29.820 ,7,1,12.2,0.920,0.124,8.790E-02,-1.00,-1.00,2.167E-02,2.177E-03
1979-02-25 00:27:30.260 ,1979-02-25 00:28:11.820 ,8,1,12.1,0.694,0.178,7.942E-02,-1.00,-1.00,2.299E-02,1.617E-03
1979-02-25 00:28:11.880 ,1979-02-25 00:28:17.820 ,8,-1,15.8,2.04,0.497,0.352,-1.00,-1.00,2.134E-02,3.895E-03
1979-02-25 00:28:18.260 ,1979-02-25 00:28:41.820 ,7,-1,11.3,0.886,0.684,0.206,-1.00,-1.00,2.167E-02,2.177E-03
1979-02-25 00:28:42.260 ,1979-02-25 00:29:05.820 ,6,-1,11.1,0.899,0.559,0.186,-1.00,-1.00,2.764E-02,2.367E-03
1979-02-25 00:29:06.260 ,1979-02-25 00:29:29.820 ,5,-1,11.4,0.887,0.497,0.176,-1.00,-1.00,2.150E-02,2.126E-03
1979-02-25 00:29:30.260 ,1979-02-25 00:29:53.820 ,4,-1,7.91,0.760,0.559,0.186,-1.00,-1.00,2.419E-02,2.215E-03
1979-02-25 00:29:54.260 ,1979-02-25 00:30:17.820 ,3,-1,11.4,0.914,0.497,0.176,-1.00,-1.00,2.358E-02,2.188E-03
1979-02-25 00:30:18.260 ,1979-02-25 00:30:41.820 ,2,-1,13.2,0.956,0.373,0.152,-1.00,-1.00,2.337E-02,2.177E-03
1979-02-25 00:30:41.880 ,1979-02-25 00:31:06.260 ,1,-1,12.1,1.63,0.249,0.144,-1.00,-1.00,2.340E-02,3.846E-03
1979-02-25 00:31:06.260 ,1979-02-25 00:31:29.820 ,1,1,11.2,0.882,0.186,0.108,-1.00,-1.00,2.649E-02,2.277E-03
1979-02-25 00:31:30.260 ,1979-02-25 00:31:53.820 ,2,1,11.8,0.903,0.435,0.164,-1.00,-1.00,2.129E-02,2.116E-03
1979-02-25 00:31:54.260 ,1979-02-25 00:32:17.820 ,3,1,11.5,0.891,0.186,0.108,-1.00,-1.00,2.520E-02,2.260E-03
1979-02-25 00:32:18.260 ,1979-02-25 00:32:41.820 ,4,1,8.12,0.750,0.249,0.124,-1.00,-1.00,2.023E-02,2.065E-03
1979-02-25 00:32:42.260 ,1979-02-25 00:33:05.820 ,5,1,12.0,0.912,0.311,0.139,-1.00,-1.00,2.100E-02,2.028E-03
1979-02-25 00:33:06.260 ,1979-02-25 00:33:23.820 ,6,1,12.0,1.06,0.497,0.203,-1.00,-1.00,2.114E-02,2.391E-03
1979-02-25 00:34:11.880 ,1979-02-25 00:34:35.880 ,9,0,11.7,0.877,0.497,0.157,0.000E+00,0.000E+00,2.144E-02,2.016E-03
1979-02-25 00:34:35.880 ,1979-02-25 00:34:41.820 ,8,-1,12.9,1.85,0.249,0.249,-1.00,-1.00,1.921E-02,3.694E-03
1979-02-25 00:34:42.260 ,1979-02-25 00:35:05.820 ,7,-1,12.4,0.928,0.311,0.139,-1.00,-1.00,2.234E-02,2.168E-03
1979-02-25 00:35:06.260 ,1979-02-25 00:35:29.820 ,6,-1,11.7,0.925,0.373,0.152,-1.00,-1.00,2.708E-02,2.302E-03
1979-02-25 00:35:30.260 ,1979-02-25 00:35:53.820 ,5,-1,11.0,0.872,0.497,0.176,-1.00,-1.00,2.424E-02,2.257E-03
1979-02-25 00:35:54.260 ,1979-02-25 00:36:17.820 ,4,-1,8.72,0.798,0.373,0.152,-1.00,-1.00,2.433E-02,2.182E-03
1979-02-25 00:36:18.260 ,1979-02-25 00:36:41.820 ,3,-1,11.5,0.891,0.249,0.124,-1.00,-1.00,2.215E-02,2.122E-03
1979-02-25 00:36:42.260 ,1979-02-25 00:37:05.820 ,2,-1,9.99,0.832,0.186,0.108,-1.00,-1.00,2.419E-02,2.215E-03
1979-02-25 00:37:05.880 ,1979-02-25 00:37:30.260 ,1,-1,15.1,1.68,0.995,0.287,-1.00,-1.00,1.992E-02,3.364E-03
1979-02-25 00:37:30.260 ,1979-02-25 00:37:53.820 ,1,1,11.6,0.896,0.124,8.790E-02,-1.00,-1.00,2.317E-02,2.169E-03
1979-02-25 00:37:54.260 ,1979-02-25 00:38:17.820 ,2,1,8.86,0.805,0.746,0.215,-1.00,-1.00,2.500E-02,2.254E-03
1979-02-25 00:38:18.260 ,1979-02-25 00:38:41.820 ,3,1,9.65,0.817,0.435,0.164,-1.00,-1.00,2.276E-02,2.187E-03
1979-02-25 00:38:42.260 ,1979-02-25 00:39:05.820 ,4,1,7.36,0.714,0.497,0.176,-1.00,-1.00,1.813E-02,1.954E-03
1979-02-25 00:39:06.260 ,1979-02-25 00:39:29.820 ,5,1,12.1,0.915,0.684,0.206,-1.00,-1.00,2.382E-02,2.240E-03
1979-02-25 00:39:30.260 ,1979-02-25 00:39:53.820 ,6,1,13.0,0.949,0.559,0.186,-1.00,-1.00,2.375E-02,2.156E-03
1979-02-25 00:39:54.260 ,1979-02-25 00:40:17.820 ,7,1,12.1,0.941,0.311,0.139,-1.00,-1.00,1.771E-02,1.931E-03
1979-02-25 00:40:18.260 ,1979-02-25 00:40:59.820 ,8,1,11.3,0.671,0.320,0.107,-1.00,-1.00,2.288E-02,1.627E-03
1979-02-25 00:40:59.880 ,1979-02-25 00:41:05.820 ,8,-1,11.1,1.71,0.497,0.352,-1.00,-1.00,2.033E-02,4.065E-03
1979-02-25 00:41:06.260 ,1979-02-25 00:41:29.820 ,7,-1,12.0,0.912,0.124,8.790E-02,-1.00,-1.00,2.237E-02,2.094E-03
1979-02-25 00:41:30.260 ,1979-02-25 00:41:53.820 ,6,-1,9.99,0.832,0.622,0.196,-1.00,-1.00,1.960E-02,2.031E-03
1979-02-25 00:41:54.260 ,1979-02-25 00:42:17.820 ,5,-1,10.2,0.840,0.559,0.186,-1.00,-1.00,2.114E-02,2.071E-03
1979-02-25 00:42:18.260 ,1979-02-25 00:42:41.820 ,4,-1,7.77,0.734,1.06,0.256,-1.00,-1.00,2.453E-02,2.192E-03
1979-02-25 00:42:42.260 ,1979-02-25 00:43:05.820 ,3,-1,11.3,0.908,0.684,0.206,-1.00,-1.00,2.414E-02,2.176E-03
1979-02-25 00:43:06.260 ,1979-02-25 00:43:29.820 ,2,-1,10.4,0.849,0.373,0.152,-1.00,-1.00,2.590E-02,2.254E-03
1979-02-25 00:43:29.880 ,1979-02-25 00:43:54.260 ,1,-1,10.5,1.52,0.746,0.249,-1.00,-1.00,1.935E-02,3.317E-03
1979-02-25 00:43:54.260 ,1979-02-25 00:44:17.820 ,1,1,11.9,0.908,0.559,0.186,-1.00,-1.00,2.572E-02,2.326E-03
1979-02-25 00:44:18.260 ,1979-02-25 00:44:41.820 ,2,1,10.9,0.868,0.373,0.152,-1.00,-1.00,2.012E-02,2.022E-03
1979-02-25 00:44:42.260 ,1979-02-25 00:45:05.820 ,3,1,9.60,0.838,0.622,0.196,-1.00,-1.00,2.492E-02,2.208E-03
1979-02-25 00:45:06.260 ,1979-02-25 00:45:29.820 ,4,1,7.56,0.725,0.186,0.108,-1.00,-1.00,2.382E-02,2.240E-03
1979-02-25 00:45:30.260 ,1979-02-25 00:45:53.820 ,5,1,9.79,0.823,0.249,0.124,-1.00,-1.00,2.297E-02,2.160E-03
1979-02-25 00:45:54.260 ,1979-02-25 00:46:17.820 ,6,1,12.2,0.920,0.186,0.108,-1.00,-1.00,2.215E-02,2.122E-03
1979-02-25 00:46:18.260 ,1979-02-25 00:46:41.820 ,7,1,12.8,0.943,0.435,0.164,-1.00,-1.00,2.237E-02,2.094E-03
1979-02-25 00:46:42.260 ,1979-02-25 00:47:23.820 ,8,1,11.3,0.672,0.497,0.133,-1.00,-1.00,1.986E-02,1.517E-03
1979-02-25 00:47:23.880 ,1979-02-25 00:47:29.820 ,8,-1,12.9,1.85,0.000E+00,0.000E+00,-1.00,-1.00,2.774E-02,4.439E-03
1979-02-25 00:47:30.260 ,1979-02-25 00:47:53.820 ,7,-1,11.9,0.907,0.311,0.139,-1.00,-1.00,2.316E-02,2.131E-03
1979-02-25 00:47:54.260 ,1979-02-25 00:48:17.820 ,6,-1,10.4,0.849,0.373,0.152,-1.00,-1.00,2.375E-02,2.156E-03
1979-02-25 00:48:18.260 ,1979-02-25 00:48:41.820 ,5,-1,9.65,0.817,0.435,0.164,-1.00,-1.00,2.394E-02,2.166E-03
1979-02-25 00:48:42.260 ,1979-02-25 00:49:05.820 ,4,-1,7.36,0.714,0.311,0.139,-1.00,-1.00,1.861E-02,2.018E-03
1979-02-25 00:49:06.260 ,1979-02-25 00:49:29.820 ,3,-1,10.5,0.851,0.186,0.108,-1.00,-1.00,2.175E-02,2.100E-03
1979-02-25 00:49:30.260 ,1979-02-25 00:49:53.820 ,2,-1,9.99,0.832,0.435,0.164,-1.00,-1.00,2.296E-02,2.120E-03
1979-02-25 00:49:53.880 ,1979-02-25 00:50:18.260 ,1,-1,9.01,1.41,0.166,0.117,-1.00,-1.00,2.276E-02,3.596E-03
1979-02-25 00:50:18.260 ,1979-02-25 00:50:41.820 ,1,1,12.1,0.917,0.373,0.152,-1.00,-1.00,2.041E-02,1.999E-03
1979-02-25 00:50:42.260 ,1979-02-25 00:51:05.820 ,2,1,11.2,0.882,0.435,0.164,-1.00,-1.00,1.981E-02,2.043E-03
1979-02-25 00:51:06.260 ,1979-02-25 00:51:29.820 ,3,1,9.65,0.817,0.186,0.108,-1.00,-1.00,2.317E-02,2.169E-03
1979-02-25 00:51:30.260 ,1979-02-25 00:51:53.820 ,4,1,7.56,0.725,0.249,0.124,-1.00,-1.00,2.080E-02,2.018E-03
1979-02-25 00:51:54.260 ,1979-02-25 00:52:17.820 ,5,1,8.40,0.762,0.186,0.108,-1.00,-1.00,2.541E-02,2.271E-03
1979-02-25 00:52:18.260 ,1979-02-25 00:52:41.820 ,6,1,10.9,0.868,0.311,0.139,-1.00,-1.00,2.703E-02,2.340E-03
1979-02-25 00:52:42.260 ,1979-02-25 00:53:05.820 ,7,1,10.5,0.900,0.622,0.196,-1.00,-1.00,2.154E-02,2.091E-03
1979-02-25 00:53:06.260 ,1979-02-25 00:53:47.820 ,8,1,11.8,0.696,0.426,0.123,-1.00,-1.00,2.039E-02,1.552E-03
1979-02-25 00:53:47.880 ,1979-02-25 00:53:53.820 ,8,-1,11.9,1.77,0.000E+00,0.000E+00,-1.00,-1.00,3.201E-02,4.772E-03
1979-02-25 00:53:54.260 ,1979-02-25 00:54:17.820 ,7,-1,12.7,0.966,0.311,0.139,-1.00,-1.00,2.335E-02,2.138E-03
1979-02-25 00:54:18.260 ,1979-02-25 00:54:41.820 ,6,-1,9.16,0.818,0.311,0.139,-1.00,-1.00,2.257E-02,2.102E-03
1979-02-25 00:54:42.260 ,1979-02-25 00:55:05.820 ,5,-1,11.2,0.880,0.559,0.186,-1.00,-1.00,2.129E-02,2.116E-03
1979-02-25 00:55:06.260 ,1979-02-25 00:55:29.820 ,4,-1,7.70,0.731,0.435,0.164,-1.00,-1.00,2.335E-02,2.138E-03
1979-02-25 00:55:30.260 ,1979-02-25 00:55:53.820 ,3,-1,9.92,0.830,0.497,0.176,-1.00,-1.00,2.256E-02,2.140E-03
1979-02-25 00:55:54.260 ,1979-02-25 00:56:17.820 ,2,-1,9.74,0.843,0.497,0.176,-1.00,-1.00,2.297E-02,2.201E-03
1979-02-25 00:56:17.880 ,1979-02-25 00:56:42.260 ,1,-1,11.9,1.61,0.414,0.185,-1.00,-1.00,2.163E-02,3.507E-03
1979-02-25 00:56:42.260 ,1979-02-25 00:57:05.820 ,1,1,11.0,0.874,0.373,0.152,-1.00,-1.00,1.951E-02,1.991E-03
1979-02-25 00:57:06.260 ,1979-02-25 00:57:29.820 ,2,1,10.9,0.868,0.622,0.196,-1.00,-1.00,2.139E-02,2.049E-03
1979-02-25 00:57:30.260 ,1979-02-25 00:57:53.820 ,3,1,11.2,0.882,0.373,0.152,-1.00,-1.00,2.414E-02,2.176E-03
1979-02-25 00:57:54.260 ,1979-02-25 00:58:17.820 ,4,1,8.74,0.779,0.249,0.124,-1.00,-1.00,2.276E-02,2.230E-03
1979-02-25 00:58:18.260 ,1979-02-25 00:58:41.820 ,5,1,10.2,0.840,0.622,0.196,-1.00,-1.00,2.581E-02,2.287E-03
1979-02-25 00:58:42.260 ,1979-02-25 00:59:05.820 ,6,1,11.5,0.917,0.311,0.139,-1.00,-1.00,2.480E-02,2.243E-03
1979-02-25 00:59:06.260 ,1979-02-25 00:59:29.820 ,7,1,10.1,0.838,0.497,0.176,-1.00,-1.00,2.319E-02,2.210E-03
1979-02-25 00:59:30.260 ,1979-02-25 00:00:11.820 ,8,1,10.8,0.656,0.320,0.107,-1.00,-1.00,2.383E-02,1.679E-03
1979-02-25 01:00:11.880 ,1979-02-25 01:00:17.820 ,8,-1,10.0,1.63,0.249,0.249,-1.00,-1.00,2.063E-02,3.829E-03
1979-02-25 01:00:18.260 ,1979-02-25 01:00:41.820 ,7,-1,10.9,0.868,0.311,0.139,-1.00,-1.00,2.337E-02,2.177E-03
1979-02-25 01:00:42.260 ,1979-02-25 01:01:05.820 ,6,-1,11.1,0.876,0.373,0.152,-1.00,-1.00,1.897E-02,1.998E-03
1979-02-25 01:01:06.260 ,1979-02-25 01:01:29.820 ,5,-1,11.3,0.886,0.497,0.176,-1.00,-1.00,2.195E-02,2.109E-03
1979-02-25 01:01:30.260 ,1979-02-25 01:01:53.820 ,4,-1,7.50,0.720,0.684,0.206,-1.00,-1.00,2.237E-02,2.094E-03
1979-02-25 01:01:54.260 ,1979-02-25 01:02:17.820 ,3,-1,10.1,0.835,0.373,0.152,-1.00,-1.00,2.053E-02,2.040E-03
1979-02-25 01:02:18.260 ,1979-02-25 01:02:41.820 ,2,-1,10.4,0.873,0.497,0.176,-1.00,-1.00,2.785E-02,2.376E-03
1979-02-25 01:02:41.880 ,1979-02-25 01:03:06.260 ,1,-1,12.1,1.63,0.332,0.166,-1.00,-1.00,2.276E-02,3.596E-03
1979-02-25 01:03:06.260 ,1979-02-25 01:03:29.820 ,1,1,11.9,0.908,0.124,8.790E-02,-1.00,-1.00,2.433E-02,2.182E-03
1979-02-25 01:03:30.260 ,1979-02-25 01:03:53.820 ,2,1,8.57,0.791,0.435,0.164,-1.00,-1.00,2.459E-02,2.233E-03
1979-02-25 01:03:54.260 ,1979-02-25 01:04:17.820 ,3,1,10.5,0.855,0.311,0.139,-1.00,-1.00,2.358E-02,2.188E-03
1979-02-25 01:04:18.260 ,1979-02-25 01:04:41.820 ,4,1,7.43,0.717,0.497,0.176,-1.00,-1.00,1.943E-02,1.952E-03
1979-02-25 01:04:42.260 ,1979-02-25 01:05:05.820 ,5,1,9.58,0.814,0.124,8.790E-02,-1.00,-1.00,2.296E-02,2.120E-03
1979-02-25 01:05:06.260 ,1979-02-25 01:05:29.820 ,6,1,11.0,0.872,0.311,0.139,-1.00,-1.00,2.297E-02,2.160E-03
1979-02-25 01:05:30.260 ,1979-02-25 01:05:53.820 ,7,1,10.6,0.858,0.186,0.108,-1.00,-1.00,2.361E-02,2.228E-03
1979-02-25 01:05:54.260 ,1979-02-25 01:06:35.820 ,8,1,11.2,0.668,0.355,0.112,-1.00,-1.00,2.083E-02,1.539E-03
1979-02-25 01:06:35.880 ,1979-02-25 01:06:41.820 ,8,-1,11.9,1.77,0.497,0.352,-1.00,-1.00,2.419E-02,4.146E-03
1979-02-25 01:06:42.260 ,1979-02-25 01:07:05.820 ,7,-1,12.1,0.915,0.622,0.196,-1.00,-1.00,2.433E-02,2.182E-03
1979-02-25 01:07:06.260 ,1979-02-25 01:07:29.820 ,6,-1,10.1,0.884,0.622,0.196,-1.00,-1.00,1.972E-02,1.999E-03
1979-02-25 01:07:30.260 ,1979-02-25 01:07:53.820 ,5,-1,11.0,0.874,0.497,0.176,-1.00,-1.00,2.492E-02,2.208E-03
1979-02-25 01:07:54.260 ,1979-02-25 01:08:17.820 ,4,-1,8.05,0.747,0.497,0.176,-1.00,-1.00,2.276E-02,2.187E-03
1979-02-25 01:08:18.260 ,1979-02-25 01:08:41.820 ,3,-1,9.92,0.830,0.186,0.108,-1.00,-1.00,1.943E-02,1.952E-03
1979-02-25 01:08:42.260 ,1979-02-25 01:09:05.820 ,2,-1,9.67,0.842,0.435,0.164,-1.00,-1.00,2.171E-02,2.137E-03
1979-02-25 01:09:05.880 ,1979-02-25 01:09:30.260 ,1,-1,13.0,1.56,0.166,0.117,-1.00,-1.00,2.049E-02,3.412E-03
1979-02-25 01:09:30.260 ,1979-02-25 01:09:53.820 ,1,1,10.0,0.856,6.216E-02,6.216E-02,-1.00,-1.00,2.340E-02,2.219E-03
1979-02-25 01:09:54.260 ,1979-02-25 01:10:17.820 ,2,1,9.79,0.823,0.311,0.139,-1.00,-1.00,1.972E-02,1.999E-03
1979-02-25 01:10:18.260 ,1979-02-25 01:10:41.820 ,3,1,10.5,0.855,0.249,0.124,-1.00,-1.00,1.855E-02,1.977E-03
1979-02-25 01:10:42.260 ,1979-02-25 01:11:05.820 ,4,1,8.61,0.772,0.497,0.176,-1.00,-1.00,2.080E-02,2.018E-03
1979-02-25 01:11:06.260 ,1979-02-25 01:11:29.820 ,5,1,10.3,0.844,0.559,0.186,-1.00,-1.00,1.912E-02,2.085E-03
1979-02-25 01:11:30.260 ,1979-02-25 01:11:53.820 ,6,1,11.2,0.880,0.373,0.152,-1.00,-1.00,2.100E-02,2.028E-03
1979-02-25 01:11:54.260 ,1979-02-25 01:12:17.820 ,7,1,10.7,0.860,0.684,0.206,-1.00,-1.00,2.459E-02,2.233E-03
1979-02-25 01:12:18.260 ,1979-02-25 01:12:59.820 ,8,1,11.1,0.665,0.284,0.100,-1.00,-1.00,2.301E-02,1.686E-03
1979-02-25 01:12:59.880 ,1979-02-25 01:13:05.820 ,8,-1,12.7,1.83,0.000E+00,0.000E+00,-1.00,-1.00,1.043E-02,3.145E-03
1979-02-25 01:13:06.260 ,1979-02-25 01:13:29.820 ,7,-1,11.2,0.882,0.559,0.186,-1.00,-1.00,2.198E-02,2.074E-03
1979-02-25 01:13:30.260 ,1979-02-25 01:13:53.820 ,6,-1,11.2,0.882,0.186,0.108,-1.00,-1.00,2.358E-02,2.188E-03
1979-02-25 01:13:54.260 ,1979-02-25 01:14:17.820 ,5,-1,10.7,0.860,0.311,0.139,-1.00,-1.00,1.751E-02,1.956E-03
1979-02-25 01:14:18.260 ,1979-02-25 01:14:41.820 ,4,-1,6.87,0.690,0.249,0.124,-1.00,-1.00,2.134E-02,2.081E-03
1979-02-25 01:14:42.260 ,1979-02-25 01:15:05.820 ,3,-1,9.09,0.794,0.124,8.790E-02,-1.00,-1.00,2.298E-02,2.241E-03
1979-02-25 01:15:06.260 ,1979-02-25 01:15:29.820 ,2,-1,10.1,0.835,0.249,0.124,-1.00,-1.00,2.211E-02,2.197E-03
1979-02-25 01:15:29.880 ,1979-02-25 01:15:54.260 ,1,-1,10.1,1.49,0.249,0.144,-1.00,-1.00,1.992E-02,3.364E-03
1979-02-25 01:15:54.260 ,1979-02-25 01:16:17.820 ,1,1,11.7,0.898,0.622,0.196,-1.00,-1.00,2.119E-02,2.037E-03
1979-02-25 01:16:18.260 ,1979-02-25 01:16:41.820 ,2,1,9.58,0.814,0.373,0.152,-1.00,-1.00,2.622E-02,2.306E-03
1979-02-25 01:16:42.260 ,1979-02-25 01:17:05.820 ,3,1,10.4,0.849,0.497,0.176,-1.00,-1.00,1.923E-02,1.941E-03
1979-02-25 01:17:06.260 ,1979-02-25 01:17:29.820 ,4,1,8.19,0.754,0.249,0.124,-1.00,-1.00,1.864E-02,1.911E-03
1979-02-25 01:17:30.260 ,1979-02-25 01:17:53.820 ,5,1,10.9,0.868,0.497,0.176,-1.00,-1.00,2.382E-02,2.240E-03
1979-02-25 01:17:54.260 ,1979-02-25 01:18:17.820 ,6,1,10.5,0.900,0.124,8.790E-02,-1.00,-1.00,2.053E-02,2.040E-03
1979-02-25 01:18:18.260 ,1979-02-25 01:18:41.820 ,7,1,10.2,0.862,0.249,0.124,-1.00,-1.00,2.394E-02,2.166E-03
1979-02-25 01:18:42.260 ,1979-02-25 01:19:23.820 ,8,1,10.8,0.665,0.426,0.123,-1.00,-1.00,2.242E-02,1.611E-03
1979-02-25 01:19:23.880 ,1979-02-25 01:19:29.820 ,8,-1,11.1,1.71,0.497,0.352,-1.00,-1.00,2.490E-02,4.205E-03
1979-02-25 01:19:30.260 ,1979-02-25 01:19:53.820 ,7,-1,11.4,0.887,0.249,0.124,-1.00,-1.00,2.590E-02,2.254E-03
1979-02-25 01:19:54.260 ,1979-02-25 01:20:17.820 ,6,-1,11.2,0.905,0.311,0.139,-1.00,-1.00,2.218E-02,2.086E-03
1979-02-25 01:20:18.260 ,1979-02-25 01:20:41.820 ,5,-1,9.37,0.805,0.249,0.124,-1.00,-1.00,2.073E-02,2.050E-03
1979-02-25 01:20:42.260 ,1979-02-25 01:21:05.820 ,4,-1,7.50,0.720,0.124,8.790E-02,-1.00,-1.00,2.237E-02,2.094E-03
1979-02-25 01:21:06.260 ,1979-02-25 01:21:29.820 ,3,-1,11.7,0.902,0.311,0.139,-1.00,-1.00,1.951E-02,1.991E-03
1979-02-25 01:21:30.260 ,1979-02-25 01:21:53.820 ,2,-1,11.4,0.914,0.249,0.124,-1.00,-1.00,2.487E-02,2.289E-03
1979-02-25 01:21:53.880 ,1979-02-25 01:22:18.260 ,1,-1,12.2,1.52,0.249,0.144,-1.00,-1.00,2.220E-02,3.551E-03
1979-02-25 01:22:18.260 ,1979-02-25 01:22:41.820 ,1,1,10.1,0.835,0.995,0.249,-1.00,-1.00,2.080E-02,2.018E-03
1979-02-25 01:22:42.260 ,1979-02-25 01:23:05.820 ,2,1,10.5,0.879,0.124,8.790E-02,-1.00,-1.00,2.218E-02,2.086E-03
1979-02-25 01:23:06.260 ,1979-02-25 01:23:29.820 ,3,1,10.1,0.838,0.684,0.206,-1.00,-1.00,2.610E-02,2.259E-03
1979-02-25 01:23:30.260 ,1979-02-25 01:23:53.820 ,4,1,8.40,0.762,0.373,0.152,-1.00,-1.00,1.789E-02,1.906E-03
1979-02-25 01:23:54.260 ,1979-02-25 01:24:17.820 ,5,1,11.7,0.902,0.373,0.152,-1.00,-1.00,2.480E-02,2.243E-03
1979-02-25 01:24:18.260 ,1979-02-25 01:24:41.820 ,6,1,9.85,0.827,0.559,0.186,-1.00,-1.00,1.943E-02,1.952E-03
1979-02-25 01:24:42.260 ,1979-02-25 01:25:05.820 ,7,1,12.5,0.957,0.124,8.790E-02,-1.00,-1.00,2.361E-02,2.228E-03
1979-02-25 01:25:06.260 ,1979-02-25 01:25:47.820 ,8,1,10.9,0.668,0.284,0.100,-1.00,-1.00,2.300E-02,1.650E-03
1979-02-25 01:25:47.880 ,1979-02-25 01:25:53.820 ,8,-1,12.4,1.81,0.497,0.352,-1.00,-1.00,2.419E-02,4.146E-03
1979-02-25 01:25:54.260 ,1979-02-25 01:26:17.820 ,7,-1,11.2,0.882,0.373,0.152,-1.00,-1.00,1.829E-02,1.926E-03